User: anonymous   Login
Location: Fort Wayne
(41.1310°N, 85.1290°W)
Time: 22:56:53
(UTC-04:00)
Language:

Cosmos 1953 - Orbit

View from above orbital plane
View from above orbital plane
View from above satellite
View from above satellite

Ground track
Ground track

The orbit data is extracted from the following two-line orbital elements,

1 19210U 88050A   17147.28777525 +.00001006 +00000-0 +68321-4 0  9998
2 19210 082.5194 053.6528 0013015 338.0369 022.0298 15.05254695553564
Epoch (UTC): 27 May 2017 06:54:23
Eccentricity: 0.0013015
inclination: 82.5194°
perigee height: 542 km
apogee height: 560 km
right ascension of ascending node: 53.6528°
argument of perigee: 338.0369°
revolutions per day: 15.05254695
mean anomaly at epoch: 22.0298°
orbit number at epoch: 55356

The dashed part of the orbit path shows where the satellite is in the earth's shadow,  

DLR